SCP
0 0 0 0 -0 -0 -0 0 0 0 0 0 0 0 0 0 0 0 0 0 0 0 0 0 -0 -0 0 -0 -0 -0 -0 -0
0 0 0 0 -0 -0 0 0 0 0 0 0 0 0 0 0 0 0 0 -0 0 0 0 0 0 0 0 0 -0 -0 -0 -0
0 0 0 -0 -0 0 0 0 0 0 0 0 0 0 0 0 0 0 0 -0 0 0 0 0 0 0 0 0 0 -0 -0 -0
0 -0 0 -0 0 0 0 0 0 0 0 0 0 0 0 0 0 0 0 0 0 0 0 0 0 0 0 0 0 0 0 -0
0 0 -0 0 0 0 0 0 0 0 0 0 0 0 0 0 0 0 0 0 0 0 0 0 0 0 0 0 0 0 0 0
-0 -0 0 0 0 0 0 0 0 0 0 0 0 0 0 0 0 0 0 0 0 0 0 0 0 0 0 0 0 0 0 0
0 0 0 0 0 0 0 0 0 0 0 0 0 0 0 0 0 0 0 0 0 0 0 0 0 0 0 0 0 0 0 0
0 0 0 0 0 0 0 0 0 0 0 0 0 0 0 0 0 0 0 0 0 0 0 0 0 0 0 0 0 0 0 0
0 0 0 0 0 0 0 0 0 0 0 0 0 0 0 0 -0 0 0 0 0 0 0 0 0 0 0 -0 0 0 0 0
0 0 0 0 0 0 0 0 0 0 0 0 0 0 0 0 -0 -0 -0 0 0 0 0 0 0 0 0 -0 -0 -0 -0 -0
0 0 0 0 0 0 0 0 0 0 0 0 0 0 0 -0 0 -0 -0 0 0 0 0 0 0 0 0 -0 0 -0 0 0
0 0 0 0 0 0 0 0 0 0 0 0 0 0 -0 0 -0 -0 0 0 0 0 0 0 0 0 0 0 0 0 0 0
0 0 0 0 0 0 0 -0 0 -0 0 0 -0 -0 -0 -0 -0 -0 -0 -0 0 0 0 0 0 0 0 0 0 0 0 0
0 0 0 0 0 0 0 0 0 0 -0 -0 -0 -0 -0 -0 -0 -0 0 0 0 0 0 0 0 0 0 0 0 0 0 0
0 0 0 0 0 0 0 0 0 -0 -0 -0 -0 -0 0 0 0 0 0 0 0 0 0 0 0 0 0 0 0 0 0 0
0 0 0 0 0 0 0 0 0 -0 0 -0 0 0 0 0 0 0 0 0 0 0 0 0 0 0 0 0 0 0 0 0
0 0 0 0 0 0 0 0 0 0 0 0 0 0 0 0 0 0 0 0 0 0 0 0 0 0 0 0 0 0 0 0
0 0 0 0 0 0 0 0 0 0 0 0 0 0 0 0 0 0 0 0 0 0 0 0 0 0 0 0 0 0 0 0
0 0 0 0 0 0 0 0 0 0 0 0 0 0 0 0 0 0 0 0 0 0 0 0 0 0 0 0 0 0 0 0
0 0 0 0 0 0 0 0 0 0 0 0 0 0 0 0 0 0 0 0 0 0 0 0 0 0 0 0 0 0 0 0
Wind_Speed_500mb
25 34 48 59 65 59 46 39 33 30 30 34 33 31 31 31 29 27 26 30 30 27 25 26 28 30 25 28 39 38 29 15
29 41 54 57 52 41 37 32 29 30 27 30 30 31 34 34 30 29 30 29 26 25 23 22 24 29 25 24 29 37 33 27
33 40 47 44 35 31 31 28 25 28 28 31 31 31 35 36 31 31 31 29 26 23 21 21 21 28 26 20 20 25 24 25
30 43 39 31 30 28 28 26 27 31 32 31 32 36 37 40 32 30 27 27 25 23 20 20 21 25 19 19 12 15 17 17
37 32 26 28 25 25 27 25 23 26 31 30 36 36 34 39 28 28 28 29 23 17 23 20 24 25 20 18 18 10 8 13
32 25 23 22 25 22 22 26 23 25 27 31 35 34 35 33 26 27 29 27 23 18 25 24 23 23 22 23 15 1 10 8
27 20 18 20 22 25 26 28 27 26 25 27 29 34 32 29 23 21 22 26 22 20 18 17 18 19 23 22 17 8 3 4
16 17 20 21 22 24 25 26 24 23 22 26 26 28 34 24 23 26 25 20 21 18 13 12 15 17 17 16 15 13 1 16
12 15 21 21 19 22 23 23 26 28 27 24 24 24 23 23 26 32 25 13 14 13 17 18 9 8 14 15 12 10 12 16
15 19 19 21 28 29 23 22 28 30 30 20 18 23 25 25 30 27 22 17 19 20 20 25 21 19 13 11 14 12 13 14
20 20 18 20 24 30 29 40 30 34 15 13 15 19 25 24 24 28 30 22 22 30 30 28 33 29 15 8 7 12 11 18
15 19 26 23 24 25 28 20 30 27 21 17 17 16 18 20 29 29 31 27 30 36 36 35 23 29 25 21 15 13 10 19
24 24 24 29 22 22 29 26 23 23 26 20 19 18 18 22 24 29 29 33 33 34 35 35 21 27 24 20 15 16 15 20
21 24 21 21 23 20 29 22 26 22 20 20 17 19 20 21 22 21 23 25 26 27 33 34 27 30 26 26 26 26 30 35
28 19 17 25 21 22 28 30 24 25 21 19 22 25 20 23 26 25 29 24 24 27 32 49 46 37 35 38 39 41 44 42
19 20 24 23 22 16 25 35 26 23 16 18 21 21 20 22 26 27 32 29 31 34 38 44 40 39 44 43 44 45 47 44
19 17 22 21 23 19 27 29 29 24 29 38 42 46 42 36 34 32 33 35 38 40 41 41 42 44 45 46 48 50 46 43
23 25 22 24 25 31 32 29 38 46 41 35 37 42 42 42 38 40 41 43 42 41 42 42 41 47 53 51 52 53 53 51
32 23 24 24 30 29 32 35 56 61 57 52 48 55 50 42 44 46 43 43 41 40 37 41 45 48 52 55 57 57 55 51
24 20 23 21 25 30 39 35 50 55 55 62 58 53 51 54 53 47 42 39 38 38 37 39 43 49 56 58 55 52 51 53
Wind_Direction_500mb
31 13 3 356 349 346 348 352 355 360 355 360 14 27 18 2 355 354 352 349 350 352 355 353 358 358 3 15 21 10 11 5
16 5 357 348 344 347 350 359 1 10 30 29 11 10 9 2 358 357 353 353 353 355 350 347 357 0 2 8 23 21 26 32
1 350 347 346 354 360 10 14 29 40 23 13 12 11 11 9 6 5 3 4 1 351 350 343 351 356 358 16 31 29 22 27
351 348 346 357 358 0 13 52 35 24 18 12 19 18 13 4 355 359 358 357 359 2 357 356 352 349 353 1 338 17 13 3
343 345 355 358 5 34 35 29 23 19 16 24 12 12 9 5 11 9 7 4 3 7 4 6 5 3 359 351 329 321 345 354
351 357 0 24 53 35 19 16 15 11 18 27 21 6 5 9 12 10 8 9 13 20 14 13 356 2 3 357 4 329 342 331
355 5 61 41 32 30 27 24 27 31 30 20 6 2 3 3 8 9 14 22 20 22 33 5 10 12 12 11 16 352 7 333
18 65 48 43 36 29 27 27 24 19 7 359 1 352 359 5 4 3 7 13 12 4 355 353 345 344 6 11 16 15 9 347
93 62 46 33 22 19 13 5 0 354 349 343 349 350 351 353 354 359 353 324 318 348 341 326 325 313 327 345 360 14 7 341
76 58 43 32 10 355 348 346 346 338 341 334 332 353 344 342 345 352 355 338 341 343 350 6 352 300 340 333 341 11 17 4
54 44 22 4 4 358 351 353 332 348 344 4 357 350 346 349 354 8 10 19 30 26 23 14 21 25 23 5 10 39 47 39
45 19 5 15 15 5 11 12 7 13 18 7 9 351 342 345 353 1 7 23 29 24 22 19 22 24 35 58 63 67 49 35
22 22 23 8 18 21 27 22 12 14 11 14 20 9 358 346 351 357 7 11 18 18 18 10 23 17 40 38 62 74 68 74
31 7 10 19 4 25 21 14 7 15 10 24 19 3 4 12 8 10 10 15 25 31 24 28 36 57 65 75 77 79 91 104
11 19 37 37 34 19 19 13 8 22 17 25 6 359 19 23 22 19 20 52 46 47 50 63 69 39 72 81 84 97 104 105
39 48 47 38 33 29 15 8 16 20 38 3 6 27 27 25 30 52 66 66 66 66 69 67 58 64 80 87 91 102 105 100
17 45 50 38 34 40 9 15 12 25 49 62 64 54 59 70 68 73 77 75 74 79 80 73 80 81 87 90 89 97 102 97
45 65 54 47 41 31 33 29 62 72 67 61 65 67 70 69 75 78 80 80 80 81 84 77 76 84 84 85 88 90 90 90
67 68 56 49 47 49 52 69 73 73 74 62 67 79 72 74 78 82 84 83 80 82 90 75 79 83 85 87 89 88 87 85
61 61 67 58 43 54 61 86 70 77 78 73 75 66 73 76 79 81 82 81 79 81 85 83 90 88 88 86 88 87 86 90
Wind_Speed_850mb
25 34 48 59 65 59 46 39 33 30 30 34 33 31 31 31 29 27 26 30 30 27 25 26 28 30 25 28 39 38 29 15
29 41 54 57 52 41 37 32 29 30 27 30 30 31 34 34 30 29 30 29 26 25 23 22 24 29 25 24 29 37 33 27
33 40 47 44 35 31 31 28 25 28 28 31 31 31 35 36 31 31 31 29 26 23 21 21 21 28 26 20 20 25 24 25
30 43 39 31 30 28 28 26 27 31 32 31 32 36 37 40 32 30 27 27 25 23 20 20 21 25 19 19 12 15 17 17
37 32 26 28 25 25 27 25 23 26 31 30 36 36 34 39 28 28 28 29 23 17 23 20 24 25 20 18 18 10 8 13
32 25 23 22 25 22 22 26 23 25 27 31 35 34 35 33 26 27 29 27 23 18 25 24 23 23 22 23 15 1 10 8
27 20 18 20 22 25 26 28 27 26 25 27 29 34 32 29 23 21 22 26 22 20 18 17 18 19 23 22 17 8 3 4
16 17 20 21 22 24 25 26 24 23 22 26 26 28 34 24 23 26 25 20 21 18 13 12 15 17 17 16 15 13 1 16
12 15 21 21 19 22 23 23 26 28 27 24 24 24 23 23 26 32 25 13 14 13 17 18 9 8 14 15 12 10 12 16
15 19 19 21 28 29 23 22 28 30 30 20 18 23 25 25 30 27 22 17 19 20 20 25 21 19 13 11 14 12 13 14
20 20 18 20 24 30 29 40 30 34 15 13 15 19 25 24 24 28 30 22 22 30 30 28 33 29 15 8 7 12 11 18
15 19 26 23 24 25 28 20 30 27 21 17 17 16 18 20 29 29 31 27 30 36 36 35 23 29 25 21 15 13 10 19
24 24 24 29 22 22 29 26 23 23 26 20 19 18 18 22 24 29 29 33 33 34 35 35 21 27 24 20 15 16 15 20
21 24 21 21 23 20 29 22 26 22 20 20 17 19 20 21 22 21 23 25 26 27 33 34 27 30 26 26 26 26 30 35
28 19 17 25 21 22 28 30 24 25 21 19 22 25 20 23 26 25 29 24 24 27 32 49 46 37 35 38 39 41 44 42
19 20 24 23 22 16 25 35 26 23 16 18 21 21 20 22 26 27 32 29 31 34 38 44 40 39 44 43 44 45 47 44
19 17 22 21 23 19 27 29 29 24 29 38 42 46 42 36 34 32 33 35 38 40 41 41 42 44 45 46 48 50 46 43
23 25 22 24 25 31 32 29 38 46 41 35 37 42 42 42 38 40 41 43 42 41 42 42 41 47 53 51 52 53 53 51
32 23 24 24 30 29 32 35 56 61 57 52 48 55 50 42 44 46 43 43 41 40 37 41 45 48 52 55 57 57 55 51
24 20 23 21 25 30 39 35 50 55 55 62 58 53 51 54 53 47 42 39 38 38 37 39 43 49 56 58 55 52 51 53
Wind_Direction_850mb
31 13 3 356 349 346 348 352 355 360 355 360 14 27 18 2 355 354 352 349 350 352 355 353 358 358 3 15 21 10 11 5
16 5 357 348 344 347 350 359 1 10 30 29 11 10 9 2 358 357 353 353 353 355 350 347 357 0 2 8 23 21 26 32
1 350 347 346 354 360 10 14 29 40 23 13 12 11 11 9 6 5 3 4 1 351 350 343 351 356 358 16 31 29 22 27
351 348 346 357 358 0 13 52 35 24 18 12 19 18 13 4 355 359 358 357 359 2 357 356 352 349 353 1 338 17 13 3
343 345 355 358 5 34 35 29 23 19 16 24 12 12 9 5 11 9 7 4 3 7 4 6 5 3 359 351 329 321 345 354
351 357 0 24 53 35 19 16 15 11 18 27 21 6 5 9 12 10 8 9 13 20 14 13 356 2 3 357 4 329 342 331
355 5 61 41 32 30 27 24 27 31 30 20 6 2 3 3 8 9 14 22 20 22 33 5 10 12 12 11 16 352 7 333
18 65 48 43 36 29 27 27 24 19 7 359 1 352 359 5 4 3 7 13 12 4 355 353 345 344 6 11 16 15 9 347
93 62 46 33 22 19 13 5 0 354 349 343 349 350 351 353 354 359 353 324 318 348 341 326 325 313 327 345 360 14 7 341
76 58 43 32 10 355 348 346 346 338 341 334 332 353 344 342 345 352 355 338 341 343 350 6 352 300 340 333 341 11 17 4
54 44 22 4 4 358 351 353 332 348 344 4 357 350 346 349 354 8 10 19 30 26 23 14 21 25 23 5 10 39 47 39
45 19 5 15 15 5 11 12 7 13 18 7 9 351 342 345 353 1 7 23 29 24 22 19 22 24 35 58 63 67 49 35
22 22 23 8 18 21 27 22 12 14 11 14 20 9 358 346 351 357 7 11 18 18 18 10 23 17 40 38 62 74 68 74
31 7 10 19 4 25 21 14 7 15 10 24 19 3 4 12 8 10 10 15 25 31 24 28 36 57 65 75 77 79 91 104
11 19 37 37 34 19 19 13 8 22 17 25 6 359 19 23 22 19 20 52 46 47 50 63 69 39 72 81 84 97 104 105
39 48 47 38 33 29 15 8 16 20 38 3 6 27 27 25 30 52 66 66 66 66 69 67 58 64 80 87 91 102 105 100
17 45 50 38 34 40 9 15 12 25 49 62 64 54 59 70 68 73 77 75 74 79 80 73 80 81 87 90 89 97 102 97
45 65 54 47 41 31 33 29 62 72 67 61 65 67 70 69 75 78 80 80 80 81 84 77 76 84 84 85 88 90 90 90
67 68 56 49 47 49 52 69 73 73 74 62 67 79 72 74 78 82 84 83 80 82 90 75 79 83 85 87 89 88 87 85
61 61 67 58 43 54 61 86 70 77 78 73 75 66 73 76 79 81 82 81 79 81 85 83 90 88 88 86 88 87 86 90